Destin, FL

10:16 AM CST on January 17, 2017 (GMT -0600)
Destin-Fort Walton Beach

Weather History for KDTS - May, 2013

Change the Weather History Date:

Saturday, May 11, 2013

  Actual Average Record
Temperature  
Mean Temperature 70 °F -  
Max Temperature 75 °F 79 °F 88 °F (2007)
Min Temperature 66 °F 65 °F 60 °F (1997)
Cooling Degree Days 4    
Growing Degree Days 20 (Base 50)    
Moisture  
Dew Point 65 °F    
Average Humidity 83    
Maximum Humidity 93    
Minimum Humidity 76    
Precipitation  
Precipitation 0.17 in - - ()
Sea Level Pressure  
Sea Level Pressure 30.01 in    
Wind  
Wind Speed 2 mph (WSW)    
Max Wind Speed 6 mph    
Max Gust Speed -    
Visibility 9 miles    
Events Rain    
Averages and records for this station are not official NWS values.
T = Trace of Precipitation, MM = Missing Value Source: NWS Daily Summary

Daily Weather History Graph

Daily Weather History Graph

Search for Another Location

Airport or City:

Trip Planner

Search our weather history database for the weather conditions in past years. The results will help you decide how hot, cold, wet, or windy it might be!

Date:

Astronomy

May. 11, 2013 Rise Set
Actual Time 5:54 AM CDT 7:30 PM CDT
Civil Twilight 5:28 AM CDT 7:56 PM CDT
Nautical Twilight 4:56 AM CDT 8:28 PM CDT
Astronomical Twilight 4:24 AM CDT 9:01 PM CDT
Moon 7:03 AM CDT (5/11) 9:08 PM CDT (5/11)
Length of Visible Light 14h 28m
Length of Day
13h 36m
Waxing Crescent, 3% of the Moon is Illuminated
May 11
Waxing Crescent
May 17
First Quarter
May 24
Full
May 31
Last Quarter
Jun 8
New

Hourly Weather History & Observations

Time (CDT) Temp. Dew Point Humidity Pressure Visibility Wind Dir Wind Speed Gust Speed Precip Events Conditions
12:53 AM 72.0 °F 64.9 °F 78% 30.01 in 10.0 mi SW 3.5 mph - N/A   Clear
1:53 AM 71.1 °F 64.9 °F 81% 30.01 in 10.0 mi NW 3.5 mph - N/A   Clear
2:53 AM 69.1 °F 64.9 °F 87% 30.00 in 10.0 mi NNW 3.5 mph - N/A   Clear
3:53 AM 68.0 °F 64.0 °F 87% 29.99 in 10.0 mi Calm Calm - N/A   Clear
4:53 AM 66.9 °F 64.0 °F 90% 29.98 in 10.0 mi Calm Calm - N/A   Clear
5:53 AM 66.0 °F 63.0 °F 90% 29.99 in 5.0 mi Calm Calm - N/A   Clear
6:53 AM 68.0 °F 66.0 °F 93% 29.99 in 8.0 mi Calm Calm - N/A   Clear
7:53 AM 72.0 °F 66.0 °F 81% 30.02 in 10.0 mi South 5.8 mph - N/A   Clear
8:53 AM 72.0 °F 66.9 °F 84% 30.03 in 10.0 mi Calm Calm - N/A   Overcast
9:53 AM 71.1 °F 66.9 °F 87% 30.05 in 5.0 mi Variable 3.5 mph - 0.02 in Rain Rain
10:08 AM 69.8 °F 66.2 °F 88% 30.05 in 2.5 mi Variable 5.8 mph - 0.04 in Rain Rain
10:21 AM 69.8 °F 64.4 °F 83% 30.06 in 3.0 mi WSW 5.8 mph - 0.07 in Rain Rain
10:32 AM 69.8 °F 64.4 °F 83% 30.06 in 2.5 mi Variable 3.5 mph - 0.10 in Rain Rain
10:41 AM 68.0 °F 64.4 °F 88% 30.05 in 4.0 mi Variable 4.6 mph - 0.11 in Rain Light Rain
10:53 AM 69.1 °F 64.9 °F 87% 30.05 in 10.0 mi Variable 3.5 mph - 0.11 in Rain Light Rain
11:53 AM 70.0 °F 66.0 °F 87% 30.02 in 10.0 mi Calm Calm - 0.02 in   Mostly Cloudy
12:53 PM 70.0 °F 66.0 °F 87% 30.04 in 10.0 mi Calm Calm - 0.02 in Rain Light Rain
1:12 PM 69.8 °F 64.4 °F 83% 30.03 in 10.0 mi Calm Calm - N/A   Overcast
1:40 PM 71.6 °F 66.2 °F 83% 30.03 in 10.0 mi Calm Calm - N/A   Mostly Cloudy
1:53 PM 72.0 °F 64.9 °F 78% 30.02 in 10.0 mi Variable 3.5 mph - N/A   Mostly Cloudy
2:53 PM 73.0 °F 64.9 °F 76% 29.99 in 10.0 mi Calm Calm - N/A   Overcast
3:12 PM 73.4 °F 66.2 °F 78% 29.99 in 10.0 mi Calm Calm - N/A   Mostly Cloudy
3:53 PM 73.9 °F 66.0 °F 76% 29.98 in 10.0 mi Calm Calm - N/A   Mostly Cloudy
4:53 PM 73.0 °F 66.0 °F 79% 29.99 in 10.0 mi SSW 3.5 mph - N/A   Overcast
5:03 PM 73.4 °F 66.2 °F 78% 29.98 in 10.0 mi Calm Calm - N/A   Overcast
5:53 PM 72.0 °F 64.9 °F 78% 29.97 in 10.0 mi SW 4.6 mph - N/A   Clear
6:53 PM 72.0 °F 66.0 °F 81% 29.98 in 10.0 mi Calm Calm - 0.00 in   Partly Cloudy
7:53 PM 72.0 °F 66.0 °F 81% 29.99 in 10.0 mi SSW 3.5 mph - N/A   Partly Cloudy
8:53 PM 72.0 °F 66.0 °F 81% 30.00 in 10.0 mi Variable 4.6 mph - N/A   Mostly Cloudy
9:53 PM 72.0 °F 66.0 °F 81% 30.01 in 10.0 mi Calm Calm - N/A   Clear
10:53 PM 71.1 °F 66.0 °F 84% 30.01 in 10.0 mi Calm Calm - N/A   Clear
11:53 PM 70.0 °F 66.0 °F 87% 30.00 in 10.0 mi Calm Calm - N/A   Clear